West Lebanon, NH

7:36 AM EDT on September 26, 2016 (GMT -0400)
Lebanon Municipal

Weather History for KLEB - November, 2013

Change the Weather History Date:

Monday, November 4, 2013

  Actual Average Record
Temperature  
Mean Temperature 29 °F -  
Max Temperature 39 °F 53 °F 74 °F (1987)
Min Temperature 19 °F 35 °F 17 °F (1932)
Degree Days  
Heating Degree Days 36    
Moisture  
Dew Point 15 °F    
Average Humidity 64    
Maximum Humidity 82    
Minimum Humidity 31    
Precipitation  
Precipitation 0.00 in - - ()
Sea Level Pressure  
Sea Level Pressure 30.65 in    
Wind  
Wind Speed 1 mph (NNE)    
Max Wind Speed 9 mph    
Max Gust Speed -    
Visibility 10 miles    
Events      
Averages and records for this station are not official NWS values.
T = Trace of Precipitation, MM = Missing Value Source: NWS Daily Summary

Daily Weather History Graph

Daily Weather History Graph

Search for Another Location

Airport or City:

Trip Planner

Search our weather history database for the weather conditions in past years. The results will help you decide how hot, cold, wet, or windy it might be!

Date:

Astronomy

Nov. 04, 2013 Rise Set
Actual Time 6:29 AM EST 4:35 PM EST
Civil Twilight 5:59 AM EST 5:05 PM EST
Nautical Twilight 5:24 AM EST 5:39 PM EST
Astronomical Twilight 4:51 AM EST 6:13 PM EST
Moon 7:38 AM EST (11/4) 5:35 PM EST (11/4)
Length of Visible Light 11h 06m
Length of Day
10h 06m
New Moon, 2% of the Moon is Illuminated
Nov 4
New Moon
Nov 10
First Quarter
Nov 17
Full
Nov 25
Last Quarter
Dec 2
New

Hourly Weather History & Observations

Time (EST) Temp. Windchill Dew Point Humidity Pressure Visibility Wind Dir Wind Speed Gust Speed Precip Events Conditions
12:53 AM 21.9 °F - 17.1 °F 82% 30.50 in 10.0 mi Calm Calm - N/A   Clear
1:53 AM 21.0 °F 16.2 °F 15.1 °F 78% 30.52 in 10.0 mi SSE 3.5 mph - N/A   Clear
2:53 AM 21.9 °F - 16.0 °F 78% 30.56 in 10.0 mi Calm Calm - N/A   Clear
3:53 AM 21.0 °F - 16.0 °F 81% 30.57 in 10.0 mi Calm Calm - N/A   Clear
4:53 AM 19.9 °F - 15.1 °F 81% 30.60 in 10.0 mi Calm Calm - N/A   Clear
5:53 AM 19.0 °F - 14.0 °F 81% 30.63 in 10.0 mi Calm Calm - N/A   Clear
6:53 AM 19.0 °F - 12.9 °F 77% 30.66 in 10.0 mi Calm Calm - N/A   Clear
7:53 AM 24.1 °F - 17.1 °F 75% 30.67 in 10.0 mi Calm Calm - N/A   Clear
8:53 AM 28.9 °F - 17.1 °F 61% 30.68 in 10.0 mi Calm Calm - N/A   Clear
9:53 AM 34.0 °F 26.6 °F 15.1 °F 46% 30.68 in 10.0 mi NE 9.2 mph - N/A   Clear
10:53 AM 37.0 °F 30.4 °F 12.9 °F 37% 30.68 in 10.0 mi NNE 9.2 mph - N/A   Clear
11:53 AM 37.9 °F 32.7 °F 10.9 °F 33% 30.67 in 10.0 mi North 6.9 mph - N/A   Clear
12:53 PM 39.9 °F 36.7 °F 12.0 °F 32% 30.64 in 10.0 mi Variable 4.6 mph - N/A   Clear
1:53 PM 39.9 °F 37.8 °F 12.0 °F 32% 30.64 in 10.0 mi Variable 3.5 mph - N/A   Clear
2:53 PM 39.9 °F - 10.9 °F 31% 30.64 in 10.0 mi Calm Calm - N/A   Clear
3:53 PM 39.9 °F 36.7 °F 12.9 °F 33% 30.65 in 10.0 mi NNW 4.6 mph - N/A   Clear
4:53 PM 30.0 °F - 17.1 °F 59% 30.66 in 10.0 mi Calm Calm - N/A   Clear
5:53 PM 27.0 °F - 19.0 °F 72% 30.68 in 10.0 mi Calm Calm - N/A   Clear
6:53 PM 26.1 °F - 17.1 °F 69% 30.69 in 10.0 mi Calm Calm - N/A   Clear
7:53 PM 25.0 °F - 18.0 °F 75% 30.69 in 10.0 mi Calm Calm - N/A   Clear
8:53 PM 24.1 °F - 17.1 °F 75% 30.69 in 10.0 mi Calm Calm - N/A   Clear
9:53 PM 21.9 °F - 17.1 °F 82% 30.70 in 10.0 mi Calm Calm - N/A   Clear
10:53 PM 21.0 °F - 15.1 °F 78% 30.71 in 10.0 mi Calm Calm - N/A   Clear
11:53 PM 21.9 °F - 16.0 °F 78% 30.72 in 10.0 mi Calm Calm - N/A   Clear